TimePDT,TemperatureF,Dew PointF,Humidity,Sea Level PressureIn,VisibilityMPH,Wind Direction,Wind SpeedMPH,Gust SpeedMPH,PrecipitationIn,Events,Conditions,WindDirDegrees,DateUTC
12:15 AM,50.0,33.8,54,30.29,10.0,WNW,9.2,-,N/A,,Clear,290,2013-06-17 07:15:00
12:35 AM,50.0,33.8,54,30.28,10.0,West,10.4,-,N/A,,Clear,280,2013-06-17 07:35:00
12:55 AM,50.0,33.8,54,30.28,10.0,West,11.5,-,N/A,,Clear,270,2013-06-17 07:55:00
1:15 AM,50.0,32.0,50,30.28,10.0,West,9.2,-,N/A,,Clear,270,2013-06-17 08:15:00
1:35 AM,50.0,32.0,50,30.28,10.0,West,10.4,-,N/A,,Clear,270,2013-06-17 08:35:00
1:55 AM,48.2,32.0,54,30.28,10.0,West,12.7,-,N/A,,Clear,280,2013-06-17 08:55:00
2:15 AM,48.2,32.0,54,30.28,10.0,West,12.7,-,N/A,,Clear,280,2013-06-17 09:15:00
2:35 AM,46.4,32.0,57,30.27,10.0,West,9.2,-,N/A,,Clear,280,2013-06-17 09:35:00
2:55 AM,46.4,32.0,57,30.27,10.0,West,12.7,-,N/A,,Clear,270,2013-06-17 09:55:00
3:15 AM,48.2,32.0,54,30.27,10.0,West,10.4,-,N/A,,Clear,270,2013-06-17 10:15:00
3:35 AM,46.4,32.0,57,30.27,10.0,West,9.2,-,N/A,,Clear,280,2013-06-17 10:35:00
3:55 AM,46.4,30.2,53,30.26,10.0,WNW,4.6,-,N/A,,Clear,290,2013-06-17 10:55:00
4:15 AM,46.4,30.2,53,30.26,10.0,West,8.1,-,N/A,,Clear,270,2013-06-17 11:15:00
4:35 AM,46.4,30.2,53,30.26,10.0,Calm,Calm,-,N/A,,Clear,0,2013-06-17 11:35:00
4:55 AM,44.6,30.2,57,30.26,10.0,West,4.6,-,N/A,,Clear,270,2013-06-17 11:55:00
5:15 AM,44.6,30.2,57,30.27,10.0,NW,3.5,-,N/A,,Clear,310,2013-06-17 12:15:00
5:35 AM,42.8,30.2,61,30.27,10.0,West,3.5,-,N/A,,Clear,280,2013-06-17 12:35:00
5:55 AM,44.6,30.2,57,30.27,10.0,West,8.1,-,N/A,,Clear,280,2013-06-17 12:55:00
6:15 AM,46.4,30.2,53,30.27,10.0,West,5.8,-,N/A,,Clear,280,2013-06-17 13:15:00
6:35 AM,50.0,30.2,47,30.27,10.0,West,8.1,-,N/A,,Clear,270,2013-06-17 13:35:00
6:55 AM,51.8,32.0,47,30.27,10.0,WNW,6.9,-,N/A,,Clear,290,2013-06-17 13:55:00
7:15 AM,53.6,32.0,44,30.27,10.0,Calm,Calm,-,N/A,,Clear,0,2013-06-17 14:15:00
7:35 AM,55.4,32.0,41,30.27,10.0,Calm,Calm,-,N/A,,Clear,0,2013-06-17 14:35:00
7:55 AM,59.0,33.8,39,30.27,10.0,Calm,Calm,-,N/A,,Clear,0,2013-06-17 14:55:00
8:15 AM,60.8,33.8,36,30.27,10.0,SE,4.6,-,N/A,,Clear,140,2013-06-17 15:15:00
8:35 AM,62.6,33.8,34,30.27,10.0,SSE,5.8,-,N/A,,Clear,160,2013-06-17 15:35:00
8:55 AM,64.4,33.8,32,30.27,10.0,SSE,4.6,-,N/A,,Clear,150,2013-06-17 15:55:00
9:15 AM,68.0,32.0,26,30.26,10.0,SE,9.2,-,N/A,,Clear,140,2013-06-17 16:15:00
9:35 AM,68.0,28.4,23,30.26,10.0,Calm,Calm,-,N/A,,Clear,0,2013-06-17 16:35:00
9:55 AM,69.8,28.4,21,30.25,10.0,NE,3.5,-,N/A,,Clear,40,2013-06-17 16:55:00
10:15 AM,71.6,28.4,20,30.25,10.0,WNW,5.8,-,N/A,,Clear,300,2013-06-17 17:15:00
10:35 AM,71.6,30.2,22,30.24,10.0,SSE,8.1,-,N/A,,Clear,160,2013-06-17 17:35:00
10:55 AM,75.2,28.4,18,30.24,10.0,SE,9.2,-,N/A,,Clear,130,2013-06-17 17:55:00
11:15 AM,73.4,24.8,16,30.24,10.0,SSE,5.8,-,N/A,,Clear,160,2013-06-17 18:15:00
11:35 AM,75.2,24.8,15,30.24,10.0,ESE,9.2,-,N/A,,Clear,120,2013-06-17 18:35:00
11:55 AM,75.2,24.8,15,30.23,10.0,Calm,Calm,-,N/A,,Clear,0,2013-06-17 18:55:00
12:15 PM,77.0,24.8,14,30.22,10.0,SE,8.1,-,N/A,,Clear,140,2013-06-17 19:15:00
12:35 PM,77.0,23.0,13,30.21,10.0,WSW,10.4,25.3,N/A,,Clear,250,2013-06-17 19:35:00
12:55 PM,78.8,23.0,13,30.21,10.0,WNW,9.2,16.1,N/A,,Clear,300,2013-06-17 19:55:00
1:15 PM,77.0,21.2,12,30.21,10.0,WSW,9.2,18.4,N/A,,Clear,250,2013-06-17 20:15:00
1:35 PM,78.8,19.4,11,30.20,10.0,WSW,19.6,26.5,N/A,,Clear,250,2013-06-17 20:35:00
1:55 PM,78.8,21.2,12,30.20,10.0,West,19.6,25.3,N/A,,Clear,260,2013-06-17 20:55:00
2:15 PM,78.8,24.8,14,30.19,10.0,WSW,19.6,35.7,N/A,,Clear,240,2013-06-17 21:15:00
2:35 PM,78.8,24.8,14,30.19,10.0,WSW,19.6,26.5,N/A,,Clear,250,2013-06-17 21:35:00
2:55 PM,78.8,23.0,13,30.19,10.0,West,15.0,24.2,N/A,,Clear,260,2013-06-17 21:55:00
3:15 PM,78.8,24.8,14,30.19,10.0,WSW,15.0,26.5,N/A,,Clear,240,2013-06-17 22:15:00
3:35 PM,78.8,24.8,14,30.19,10.0,WSW,16.1,25.3,N/A,,Clear,240,2013-06-17 22:35:00
3:55 PM,77.0,24.8,14,30.18,10.0,WSW,18.4,26.5,N/A,,Clear,250,2013-06-17 22:55:00
4:15 PM,77.0,23.0,13,30.18,10.0,WSW,20.7,28.8,N/A,,Clear,240,2013-06-17 23:15:00
4:35 PM,77.0,23.0,13,30.17,10.0,WSW,10.4,24.2,N/A,,Clear,240,2013-06-17 23:35:00
4:55 PM,77.0,23.0,13,30.17,10.0,SW,15.0,23.0,N/A,,Clear,230,2013-06-17 23:55:00
5:15 PM,75.2,23.0,14,30.16,10.0,SW,12.7,25.3,N/A,,Clear,230,2013-06-18 00:15:00
5:35 PM,75.2,23.0,14,30.16,10.0,SW,13.8,32.2,N/A,,Clear,220,2013-06-18 00:35:00
5:55 PM,73.4,23.0,15,30.16,10.0,SW,19.6,26.5,N/A,,Clear,220,2013-06-18 00:55:00
6:15 PM,73.4,23.0,15,30.16,10.0,SSW,17.3,33.4,N/A,,Clear,210,2013-06-18 01:15:00
6:35 PM,71.6,26.6,19,30.16,10.0,SW,16.1,25.3,N/A,,Clear,230,2013-06-18 01:35:00
6:55 PM,71.6,23.0,16,30.16,10.0,North,4.6,16.1,N/A,,Clear,10,2013-06-18 01:55:00
7:15 PM,69.8,26.6,20,30.16,10.0,West,12.7,20.7,N/A,,Clear,270,2013-06-18 02:15:00
7:35 PM,68.0,26.6,21,30.16,10.0,SW,17.3,25.3,N/A,,Clear,220,2013-06-18 02:35:00
7:55 PM,66.2,26.6,23,30.17,10.0,NNW,4.6,-,N/A,,Clear,330,2013-06-18 02:55:00
8:15 PM,64.4,24.8,22,30.16,10.0,West,6.9,-,N/A,,Clear,280,2013-06-18 03:15:00
8:35 PM,64.4,24.8,22,30.16,10.0,WNW,9.2,19.6,N/A,,Clear,300,2013-06-18 03:35:00
8:55 PM,62.6,24.8,24,30.16,10.0,NNW,5.8,-,N/A,,Clear,330,2013-06-18 03:55:00
9:15 PM,64.4,19.4,18,30.16,10.0,SW,9.2,19.6,N/A,,Clear,230,2013-06-18 04:15:00
9:35 PM,64.4,15.8,15,30.17,10.0,South,10.4,24.2,N/A,,Clear,190,2013-06-18 04:35:00
9:55 PM,59.0,24.8,27,30.18,10.0,North,4.6,-,N/A,,Clear,350,2013-06-18 04:55:00
10:15 PM,55.4,23.0,29,30.18,10.0,Calm,Calm,-,N/A,,Clear,0,2013-06-18 05:15:00
10:35 PM,55.4,23.0,29,30.18,10.0,Calm,Calm,-,N/A,,Clear,0,2013-06-18 05:35:00
10:55 PM,55.4,23.0,29,30.18,10.0,East,6.9,-,N/A,,Clear,100,2013-06-18 05:55:00
11:15 PM,62.6,15.8,16,30.17,10.0,South,6.9,20.7,N/A,,Clear,190,2013-06-18 06:15:00
11:35 PM,55.4,21.2,26,30.17,10.0,Calm,Calm,-,N/A,,Clear,0,2013-06-18 06:35:00
11:55 PM,57.2,21.2,25,30.17,10.0,Calm,Calm,-,N/A,,Clear,0,2013-06-18 06:55:00